Flag for U.S.A. Weather past 2 weeks in Oxnard, California, U.S.A.

Now
61 °F

Partly cloudy.


Feels Like: 61 °F
Forecast: 56 / 65 °F
Wind: 5 mph from Northeast

Location: Oxnard Airport

Current Time: Jan 30, 2015 at 1:26:21 AM

Latest Report: Jan 30, 2015 at 12:51 AM


Visibility: 10 mi

Pressure: 29.99 "Hg

Humidity: 70%

Dew point: 51 °F

Location of OxnardLocation

Historic Weather in Oxnard — Graph

°F

Oxnard temperature yesterday

Maximum temperature yesterday: 72 °F (at 1:51 PM)
Minimum temperature yesterday: 59 °F (at 5:51 AM)
Average temperature yesterday: 64 °F

Past Weeks' High & Low Weather Summary

 TemperatureHumidityPressure
High84 °F (Jan 25, 12:51 PM)93% (Jan 20, 1:51 AM)30.27 "Hg (Jan 20, 1:51 AM)
Low50 °F (Jan 19, 7:51 AM)13% (Jan 22, 11:51 AM)29.92 "Hg (Jan 20, 4:51 PM)
Average61 °F56%30.10 "Hg
* Reported Jan 14 11:51 PM — Jan 29 11:51 PM, Oxnard, Weather by CustomWeather, © 2014

Note: Actual official high and low records may vary slightly from our data, if they occured in-between our weather recording intervals... More about our weather records

Advertising

Oxnard weather history for previous 24 hours

 ConditionsComfort  
Time TempWeatherWind HumidityBarometerVisibility
11:51 PM
Jan 29
61 °FClear.5 mph81%30.01 "Hg10 mi
10:51 PM61 °FClear.5 mph87%30.01 "Hg8 mi
9:51 PM62 °FPassing clouds.No wind83%30.01 "Hg8 mi
8:51 PM63 °FPassing clouds.3 mph84%30.01 "Hg9 mi
7:51 PM62 °FOvercast.No wind86%30.01 "Hg9 mi
6:51 PM63 °FOvercast.No wind84%30.00 "Hg10 mi
5:51 PM63 °FPassing clouds.9 mph81%29.99 "Hg10 mi
4:51 PM67 °FSunny.9 mph59%29.98 "Hg10 mi
3:51 PM69 °FSunny.8 mph51%29.98 "Hg10 mi
2:51 PM70 °FSunny.10 mph47%29.97 "Hg10 mi
1:51 PM72 °FSunny.12 mph40%29.97 "Hg10 mi
12:51 PM71 °FSunny.8 mph47%29.99 "Hg10 mi
11:51 AM68 °FSunny.13 mph63%30.03 "Hg10 mi
10:51 AM70 °FSunny.5 mph49%30.04 "Hg10 mi
9:51 AM68 °FSunny.3 mph49%30.06 "Hg10 mi
8:51 AM64 °FSunny.6 mph58%30.06 "Hg10 mi
7:51 AM60 °FSunny.5 mph67%30.03 "Hg10 mi
6:51 AM59 °FClear.No wind69%30.03 "Hg10 mi
5:51 AM59 °FClear.No wind75%30.02 "Hg10 mi
4:51 AM60 °FClear.3 mph75%30.02 "Hg10 mi
3:51 AM61 °FClear.5 mph67%30.04 "Hg10 mi
2:51 AM61 °FClear.No wind70%30.05 "Hg10 mi
1:51 AM60 °FClear.5 mph86%30.04 "Hg10 mi
Weather by CustomWeather, © 2014

See weather overviewHow to use our weather pages